Time,TemperatureF,DewpointF,PressureIn,WindDirection,WindDirectionDegrees,WindSpeedMPH,WindSpeedGustMPH,Humidity,HourlyPrecipIn,Conditions,Clouds,dailyrainin,SoftwareType,DateUTC
2013-06-01 00:02:00,67.0,65.0,-100.00,SE,135,6.0,8.0,94,0.00,,,-99.99,,2013-06-01 05:02:00,
2013-06-01 00:12:00,67.0,65.0,-100.00,SSE,155,4.0,6.0,93,0.00,,,-99.99,,2013-06-01 05:12:00,
2013-06-01 00:22:00,67.0,65.0,-100.00,SSE,155,4.0,6.0,93,0.00,,,-99.99,,2013-06-01 05:22:00,
2013-06-01 00:32:00,67.0,65.0,-100.00,SE,145,4.0,7.0,94,0.00,,,-99.99,,2013-06-01 05:32:00,
2013-06-01 00:42:00,67.0,65.0,-100.00,SE,145,4.0,7.0,94,0.00,,,-99.99,,2013-06-01 05:42:00,
2013-06-01 00:52:00,67.0,65.0,-100.00,SE,140,4.0,6.0,94,0.00,,,-99.99,,2013-06-01 05:52:00,
2013-06-01 01:01:00,67.0,65.0,-100.00,South,170,4.0,9.0,94,0.00,,,-99.99,,2013-06-01 06:01:00,
2013-06-01 01:12:00,67.0,65.0,-100.00,South,170,4.0,9.0,94,0.00,,,-99.99,,2013-06-01 06:12:00,
2013-06-01 01:22:00,67.0,66.0,-100.00,South,170,6.0,11.0,94,0.00,,,-99.99,,2013-06-01 06:22:00,
2013-06-01 01:32:00,67.0,66.0,-100.00,South,190,3.0,10.0,94,0.00,,,-99.99,,2013-06-01 06:32:00,
2013-06-01 01:42:00,67.0,66.0,-100.00,SSE,165,4.0,10.0,94,0.00,,,-99.99,,2013-06-01 06:42:00,
2013-06-01 01:52:00,68.0,66.0,-100.00,South,185,4.0,10.0,94,0.00,,,-99.99,,2013-06-01 06:52:00,
2013-06-01 02:01:00,68.0,66.0,-100.00,South,185,4.0,10.0,94,0.00,,,-99.99,,2013-06-01 07:01:00,
2013-06-01 02:11:00,68.0,66.0,-100.00,SSE,155,4.0,9.0,94,0.00,,,-99.99,,2013-06-01 07:11:00,
2013-06-01 02:21:00,68.0,66.0,-100.00,South,175,6.0,13.0,94,0.00,,,-99.99,,2013-06-01 07:21:00,
2013-06-01 02:31:00,68.0,66.0,-100.00,SSW,195,7.0,11.0,94,0.00,,,-99.99,,2013-06-01 07:31:00,
2013-06-01 02:42:00,68.0,66.0,-100.00,South,185,6.0,12.0,94,0.00,,,-99.99,,2013-06-01 07:42:00,
2013-06-01 02:52:00,68.0,66.0,-100.00,SSW,200,6.0,13.0,94,0.00,,,-99.99,,2013-06-01 07:52:00,
2013-06-01 03:02:00,68.0,66.0,-100.00,SSW,200,6.0,13.0,94,0.00,,,-99.99,,2013-06-01 08:02:00,
2013-06-01 03:11:00,68.0,66.0,-100.00,South,190,7.0,10.0,94,0.00,,,-99.99,,2013-06-01 08:11:00,
2013-06-01 03:21:00,68.0,66.0,-100.00,South,175,6.0,12.0,94,0.00,,,-99.99,,2013-06-01 08:21:00,
2013-06-01 03:32:00,68.0,66.0,-100.00,South,180,5.0,12.0,94,0.00,,,-99.99,,2013-06-01 08:32:00,
2013-06-01 03:42:00,68.0,66.0,-100.00,South,180,5.0,12.0,94,0.00,,,-99.99,,2013-06-01 08:42:00,
2013-06-01 03:52:00,68.0,66.0,-100.00,SSW,205,7.0,10.0,94,0.00,,,-99.99,,2013-06-01 08:52:00,
2013-06-01 04:01:00,68.0,66.0,-100.00,SSW,195,4.0,12.0,94,0.00,,,-99.99,,2013-06-01 09:01:00,
2013-06-01 04:12:00,68.0,66.0,-100.00,South,170,4.0,11.0,93,0.00,,,-99.99,,2013-06-01 09:12:00,
2013-06-01 04:21:00,68.0,66.0,-100.00,South,170,4.0,11.0,93,0.00,,,-99.99,,2013-06-01 09:21:00,
2013-06-01 04:33:00,67.0,65.0,-100.00,SSW,205,6.0,7.0,93,0.00,,,-99.99,,2013-06-01 09:33:00,
2013-06-01 04:42:00,67.0,65.0,-100.00,SSW,205,6.0,7.0,93,0.00,,,-99.99,,2013-06-01 09:42:00,
2013-06-01 04:53:00,67.0,65.0,-100.00,SW,220,6.0,11.0,93,0.00,,,-99.99,,2013-06-01 09:53:00,
2013-06-01 05:02:00,67.0,65.0,-100.00,SW,230,6.0,14.0,93,0.00,,,-99.99,,2013-06-01 10:02:00,
2013-06-01 05:12:00,67.0,65.0,-100.00,SW,230,6.0,14.0,93,0.00,,,-99.99,,2013-06-01 10:12:00,
2013-06-01 05:22:00,67.0,65.0,-100.00,SW,230,3.0,8.0,93,0.00,,,-99.99,,2013-06-01 10:22:00,
2013-06-01 05:33:00,67.0,65.0,-100.00,SW,225,2.0,6.0,93,0.00,,,-99.99,,2013-06-01 10:33:00,
2013-06-01 05:42:00,67.0,65.0,-100.00,South,190,2.0,5.0,93,0.00,,,-99.99,,2013-06-01 10:42:00,
2013-06-01 05:52:00,67.0,65.0,-100.00,West,260,3.0,6.0,93,0.00,,,-99.99,,2013-06-01 10:52:00,
2013-06-01 06:02:00,67.0,65.0,-100.00,West,260,3.0,6.0,93,0.00,,,-99.99,,2013-06-01 11:02:00,
2013-06-01 06:11:00,66.0,64.0,-100.00,West,260,6.0,9.0,93,0.00,,,-99.99,,2013-06-01 11:11:00,
2013-06-01 06:21:00,66.0,63.0,-100.00,WSW,240,6.0,11.0,92,0.00,,,-99.99,,2013-06-01 11:21:00,
2013-06-01 06:32:00,66.0,60.0,-100.00,West,275,8.0,12.0,81,0.00,,,-99.99,,2013-06-01 11:32:00,
2013-06-01 06:42:00,65.0,59.0,-100.00,West,265,6.0,12.0,80,0.00,,,-99.99,,2013-06-01 11:42:00,
2013-06-01 06:52:00,65.0,59.0,-100.00,West,265,6.0,12.0,80,0.00,,,-99.99,,2013-06-01 11:52:00,
2013-06-01 07:01:00,65.0,58.0,-100.00,WSW,255,4.0,8.0,77,0.00,,,-99.99,,2013-06-01 12:01:00,
2013-06-01 07:12:00,65.0,56.0,-100.00,West,275,7.0,11.0,74,0.00,,,-99.99,,2013-06-01 12:12:00,
2013-06-01 07:21:00,65.0,56.0,-100.00,West,275,7.0,11.0,74,0.00,,,-99.99,,2013-06-01 12:21:00,
2013-06-01 07:32:00,65.0,56.0,-100.00,West,260,5.0,7.0,72,0.00,,,-99.99,,2013-06-01 12:32:00,
2013-06-01 07:42:00,65.0,56.0,-100.00,West,260,5.0,7.0,72,0.00,,,-99.99,,2013-06-01 12:42:00,
2013-06-01 07:52:00,64.0,54.0,-100.00,West,260,7.0,10.0,69,0.00,,,-99.99,,2013-06-01 12:52:00,
2013-06-01 08:01:00,63.0,53.0,-100.00,WSW,255,6.0,11.0,67,0.00,,,-99.99,,2013-06-01 13:01:00,
2013-06-01 08:11:00,63.0,53.0,-100.00,WSW,255,6.0,11.0,67,0.00,,,-99.99,,2013-06-01 13:11:00,
2013-06-01 08:22:00,64.0,52.0,-100.00,West,265,4.0,11.0,64,0.00,,,-99.99,,2013-06-01 13:22:00,
2013-06-01 08:32:00,64.0,52.0,-100.00,West,260,4.0,8.0,64,0.00,,,-99.99,,2013-06-01 13:32:00,
2013-06-01 08:42:00,64.0,51.0,-100.00,WSW,255,4.0,11.0,62,0.00,,,-99.99,,2013-06-01 13:42:00,
2013-06-01 08:52:00,64.0,51.0,-100.00,West,270,6.0,9.0,61,0.00,,,-99.99,,2013-06-01 13:52:00,
2013-06-01 09:02:00,64.0,51.0,-100.00,West,270,6.0,9.0,61,0.00,,,-99.99,,2013-06-01 14:02:00,
2013-06-01 09:11:00,65.0,50.0,-100.00,West,270,7.0,11.0,59,0.00,,,-99.99,,2013-06-01 14:11:00,
2013-06-01 09:21:00,65.0,50.0,-100.00,West,270,2.0,9.0,59,0.00,,,-99.99,,2013-06-01 14:21:00,
2013-06-01 09:32:00,65.0,49.0,-100.00,West,265,7.0,12.0,55,0.00,,,-99.99,,2013-06-01 14:32:00,
2013-06-01 09:42:00,65.0,49.0,-100.00,WSW,255,6.0,12.0,55,0.00,,,-99.99,,2013-06-01 14:42:00,
2013-06-01 09:52:00,65.0,49.0,-100.00,WSW,255,6.0,12.0,55,0.00,,,-99.99,,2013-06-01 14:52:00,
2013-06-01 10:02:00,66.0,50.0,-100.00,SW,235,4.0,7.0,55,0.00,,,-99.99,,2013-06-01 15:02:00,
2013-06-01 10:11:00,67.0,50.0,-100.00,SW,225,6.0,7.0,54,0.00,,,-99.99,,2013-06-01 15:11:00,
2013-06-01 10:21:00,67.0,50.0,-100.00,SW,225,6.0,7.0,54,0.00,,,-99.99,,2013-06-01 15:21:00,
2013-06-01 10:33:00,67.0,50.0,-100.00,SSW,205,6.0,9.0,54,0.00,,,-99.99,,2013-06-01 15:33:00,
2013-06-01 10:43:00,67.0,50.0,-100.00,SSW,205,6.0,9.0,54,0.00,,,-99.99,,2013-06-01 15:43:00,
2013-06-01 10:53:00,68.0,51.0,-100.00,South,175,4.0,8.0,53,0.00,,,-99.99,,2013-06-01 15:53:00,
2013-06-01 11:03:00,70.0,52.0,-100.00,WNW,290,1.0,8.0,52,0.00,,,-99.99,,2013-06-01 16:03:00,
2013-06-01 11:12:00,70.0,52.0,-100.00,WNW,290,1.0,8.0,52,0.00,,,-99.99,,2013-06-01 16:12:00,
2013-06-01 11:23:00,69.0,51.0,-100.00,SW,215,6.0,12.0,52,0.00,,,-99.99,,2013-06-01 16:23:00,
2013-06-01 11:33:00,70.0,51.0,-100.00,South,175,7.0,12.0,51,0.00,,,-99.99,,2013-06-01 16:33:00,
2013-06-01 11:42:00,69.0,50.0,-100.00,SW,230,11.0,14.0,50,0.00,,,-99.99,,2013-06-01 16:42:00,
2013-06-01 11:52:00,71.0,51.0,-100.00,West,280,4.0,15.0,50,0.00,,,-99.99,,2013-06-01 16:52:00,
2013-06-01 12:02:00,71.0,51.0,-100.00,West,280,4.0,15.0,50,0.00,,,-99.99,,2013-06-01 17:02:00,
2013-06-01 12:11:00,71.0,52.0,-100.00,West,280,7.0,12.0,50,0.00,,,-99.99,,2013-06-01 17:11:00,
2013-06-01 12:22:00,70.0,50.0,-100.00,SW,215,14.0,18.0,49,0.01,,,-99.99,,2013-06-01 17:22:00,
2013-06-01 12:32:00,71.0,51.0,-100.00,WSW,240,11.0,15.0,48,0.00,,,-99.99,,2013-06-01 17:32:00,
2013-06-01 12:42:00,71.0,50.0,-100.00,West,265,11.0,17.0,48,0.00,,,-99.99,,2013-06-01 17:42:00,
2013-06-01 12:52:00,70.0,51.0,-100.00,WSW,240,9.0,16.0,50,0.01,,,-99.99,,2013-06-01 17:52:00,
2013-06-01 13:01:00,70.0,51.0,-100.00,WSW,240,9.0,16.0,50,0.01,,,-99.99,,2013-06-01 18:01:00,
2013-06-01 13:12:00,70.0,52.0,-100.00,West,260,7.0,16.0,51,0.00,,,-99.99,,2013-06-01 18:12:00,
2013-06-01 13:21:00,69.0,52.0,-100.00,SW,225,9.0,14.0,53,0.00,,,-99.99,,2013-06-01 18:21:00,
2013-06-01 13:32:00,70.0,52.0,-100.00,WSW,240,7.0,14.0,52,0.00,,,-99.99,,2013-06-01 18:32:00,
2013-06-01 13:41:00,70.0,52.0,-100.00,WSW,240,7.0,14.0,52,0.00,,,-99.99,,2013-06-01 18:41:00,
2013-06-01 13:51:00,69.0,51.0,-100.00,WSW,250,12.0,20.0,53,0.01,,,-99.99,,2013-06-01 18:51:00,
2013-06-01 14:02:00,69.0,51.0,-100.00,WSW,250,12.0,20.0,53,0.01,,,-99.99,,2013-06-01 19:02:00,
2013-06-01 14:11:00,71.0,53.0,-100.00,West,260,9.0,17.0,53,0.00,,,-99.99,,2013-06-01 19:11:00,
2013-06-01 14:21:00,71.0,53.0,-100.00,West,260,9.0,17.0,53,0.00,,,-99.99,,2013-06-01 19:21:00,
2013-06-01 14:32:00,69.0,52.0,-100.00,WSW,250,9.0,17.0,54,0.00,,,-99.99,,2013-06-01 19:32:00,
2013-06-01 14:41:00,69.0,52.0,-100.00,WSW,250,9.0,17.0,54,0.00,,,-99.99,,2013-06-01 19:41:00,
2013-06-01 14:52:00,69.0,53.0,-100.00,West,265,9.0,17.0,55,0.00,,,-99.99,,2013-06-01 19:52:00,
2013-06-01 15:01:00,69.0,53.0,-100.00,West,265,9.0,17.0,55,0.00,,,-99.99,,2013-06-01 20:01:00,
2013-06-01 15:12:00,69.0,53.0,-100.00,West,275,13.0,19.0,57,0.00,,,-99.99,,2013-06-01 20:12:00,
2013-06-01 15:21:00,69.0,53.0,-100.00,West,260,9.0,19.0,57,0.00,,,-99.99,,2013-06-01 20:21:00,
2013-06-01 15:32:00,69.0,53.0,-100.00,West,265,11.0,19.0,57,0.00,,,-99.99,,2013-06-01 20:32:00,
2013-06-01 15:42:00,69.0,53.0,-100.00,WSW,255,12.0,21.0,58,0.00,,,-99.99,,2013-06-01 20:42:00,
2013-06-01 15:52:00,69.0,54.0,-100.00,West,265,11.0,16.0,59,0.00,,,-99.99,,2013-06-01 20:52:00,
2013-06-01 16:01:00,69.0,54.0,-100.00,West,265,11.0,16.0,59,0.00,,,-99.99,,2013-06-01 21:01:00,
2013-06-01 16:11:00,68.0,54.0,-100.00,WSW,255,11.0,17.0,61,0.00,,,-99.99,,2013-06-01 21:11:00,
2013-06-01 16:21:00,68.0,54.0,-100.00,West,275,11.0,17.0,61,0.00,,,-99.99,,2013-06-01 21:21:00,
2013-06-01 16:33:00,68.0,54.0,-100.00,West,270,14.0,22.0,60,0.00,,,-99.99,,2013-06-01 21:33:00,
2013-06-01 16:42:00,68.0,54.0,-100.00,West,270,14.0,22.0,60,0.00,,,-99.99,,2013-06-01 21:42:00,
2013-06-01 16:53:00,69.0,54.0,-100.00,WSW,255,11.0,21.0,59,0.00,,,-99.99,,2013-06-01 21:53:00,
2013-06-01 17:03:00,69.0,55.0,-100.00,West,270,9.0,16.0,60,0.00,,,-99.99,,2013-06-01 22:03:00,
2013-06-01 17:12:00,69.0,55.0,-100.00,West,275,10.0,16.0,60,0.00,,,-99.99,,2013-06-01 22:12:00,
2013-06-01 17:23:00,69.0,55.0,-100.00,West,275,10.0,16.0,60,0.00,,,-99.99,,2013-06-01 22:23:00,
2013-06-01 17:33:00,69.0,55.0,-100.00,WSW,245,11.0,19.0,60,0.00,,,-99.99,,2013-06-01 22:33:00,
2013-06-01 17:42:00,69.0,55.0,-100.00,WSW,255,12.0,19.0,61,0.00,,,-99.99,,2013-06-01 22:42:00,
2013-06-01 17:53:00,69.0,55.0,-100.00,WSW,250,11.0,16.0,62,0.00,,,-99.99,,2013-06-01 22:53:00,
2013-06-01 18:02:00,69.0,55.0,-100.00,WSW,250,11.0,16.0,62,0.00,,,-99.99,,2013-06-01 23:02:00,
2013-06-01 18:11:00,68.0,55.0,-100.00,WSW,250,11.0,17.0,62,0.00,,,-99.99,,2013-06-01 23:11:00,
2013-06-01 18:21:00,69.0,56.0,-100.00,WSW,245,8.0,14.0,63,0.00,,,-99.99,,2013-06-01 23:21:00,
2013-06-01 18:32:00,68.0,55.0,-100.00,WNW,285,11.0,16.0,63,0.01,,,-99.99,,2013-06-01 23:32:00,
2013-06-01 18:42:00,69.0,56.0,-100.00,West,275,6.0,15.0,63,0.00,,,-99.99,,2013-06-01 23:42:00,
2013-06-01 18:52:00,69.0,55.0,-100.00,West,270,11.0,16.0,61,0.00,,,-99.99,,2013-06-01 23:52:00,
2013-06-01 19:02:00,69.0,55.0,-100.00,West,270,11.0,16.0,61,0.00,,,-99.99,,2013-06-02 00:02:00,
2013-06-01 19:11:00,67.0,54.0,-100.00,WSW,255,13.0,19.0,63,0.00,,,-99.99,,2013-06-02 00:11:00,
2013-06-01 19:21:00,67.0,55.0,-100.00,WSW,250,10.0,19.0,64,0.00,,,-99.99,,2013-06-02 00:21:00,
2013-06-01 19:32:00,68.0,55.0,-100.00,WSW,245,6.0,15.0,63,0.00,,,-99.99,,2013-06-02 00:32:00,
2013-06-01 19:41:00,68.0,55.0,-100.00,WSW,245,6.0,15.0,63,0.00,,,-99.99,,2013-06-02 00:41:00,
2013-06-01 19:51:00,67.0,55.0,-100.00,WSW,255,9.0,16.0,64,0.00,,,-99.99,,2013-06-02 00:51:00,
2013-06-01 20:01:00,67.0,55.0,-100.00,West,270,8.0,16.0,67,0.00,,,-99.99,,2013-06-02 01:01:00,
2013-06-01 20:11:00,66.0,56.0,-100.00,West,265,9.0,15.0,68,0.00,,,-99.99,,2013-06-02 01:11:00,
2013-06-01 20:21:00,66.0,56.0,-100.00,West,265,9.0,15.0,68,0.00,,,-99.99,,2013-06-02 01:21:00,
2013-06-01 20:32:00,65.0,56.0,-100.00,West,260,8.0,11.0,74,0.00,,,-99.99,,2013-06-02 01:32:00,
2013-06-01 20:42:00,65.0,56.0,-100.00,West,260,8.0,11.0,74,0.00,,,-99.99,,2013-06-02 01:42:00,
2013-06-01 20:52:00,64.0,57.0,-100.00,West,260,7.0,11.0,76,0.00,,,-99.99,,2013-06-02 01:52:00,
2013-06-01 21:01:00,64.0,57.0,-100.00,WSW,255,9.0,15.0,78,0.00,,,-99.99,,2013-06-02 02:01:00,
2013-06-01 21:12:00,64.0,57.0,-100.00,WSW,255,9.0,15.0,78,0.00,,,-99.99,,2013-06-02 02:12:00,
2013-06-01 21:21:00,64.0,58.0,-100.00,West,260,9.0,15.0,80,0.00,,,-99.99,,2013-06-02 02:21:00,
2013-06-01 21:32:00,64.0,58.0,-100.00,West,270,7.0,15.0,82,0.00,,,-99.99,,2013-06-02 02:32:00,
2013-06-01 21:41:00,64.0,59.0,-100.00,West,270,8.0,16.0,83,0.00,,,-99.99,,2013-06-02 02:41:00,
2013-06-01 21:52:00,64.0,59.0,-100.00,West,280,9.0,18.0,85,0.00,,,-99.99,,2013-06-02 02:52:00,
2013-06-01 22:02:00,64.0,59.0,-100.00,West,280,9.0,18.0,85,0.00,,,-99.99,,2013-06-02 03:02:00,
2013-06-01 22:11:00,64.0,60.0,-100.00,West,270,7.0,16.0,87,0.00,,,-99.99,,2013-06-02 03:11:00,
2013-06-01 22:21:00,63.0,60.0,-100.00,West,265,11.0,16.0,89,0.01,,,-99.99,,2013-06-02 03:21:00,
2013-06-01 22:33:00,62.0,60.0,-100.00,WNW,300,12.0,22.0,92,0.03,,,-99.99,,2013-06-02 03:33:00,
2013-06-01 22:43:00,62.0,60.0,-100.00,WNW,295,7.0,14.0,92,0.00,,,-99.99,,2013-06-02 03:43:00,
2013-06-01 22:52:00,62.0,60.0,-100.00,WNW,300,9.0,12.0,92,0.00,,,-99.99,,2013-06-02 03:52:00,
2013-06-01 23:02:00,62.0,60.0,-100.00,WNW,300,9.0,12.0,92,0.00,,,-99.99,,2013-06-02 04:02:00,
2013-06-01 23:13:00,62.0,60.0,-100.00,NW,310,10.0,14.0,91,0.00,,,-99.99,,2013-06-02 04:13:00,
2013-06-01 23:23:00,62.0,59.0,-100.00,WNW,295,12.0,16.0,89,0.00,,,-99.99,,2013-06-02 04:23:00,
2013-06-01 23:33:00,62.0,58.0,-100.00,WNW,290,12.0,19.0,86,0.00,,,-99.99,,2013-06-02 04:33:00,
2013-06-01 23:42:00,62.0,58.0,-100.00,WNW,290,12.0,19.0,86,0.00,,,-99.99,,2013-06-02 04:42:00,
2013-06-01 23:52:00,62.0,57.0,-100.00,NW,305,12.0,19.0,84,0.00,,,-99.99,,2013-06-02 04:52:00,